• In Belarus
  • List of Countries
  • For 7 days
  • Water Temperature
  • Satellite Maps
  • Weather Map
  • Weather Widgets
  • user-avatar
    Login

    Hourly Weather Rangpur

    Today, 20 April, Friday

    Time Temperature Precipitation Wind Pressure Humidity
    00:00 +28°C° 0.5 mm 4 mps 751 mmHg 66%
    01:00 +27°C° 0.7 mm 4 mps 751 mmHg 69%
    02:00 +27°C° 0.7 mm 4 mps 751 mmHg 71%
    03:00 +26°C° 0.7 mm 4 mps 751 mmHg 74%
    04:00 +26°C° 0.5 mm 4 mps 751 mmHg 75%
    05:00 +25°C° 0.5 mm 4 mps 751 mmHg 77%
    06:00 +25°C° 0.5 mm 4 mps 751 mmHg 78%
    07:00 +26°C° 0.3 mm 4 mps 751 mmHg 75%
    08:00 +28°C° 0.3 mm 5 mps 752 mmHg 72%
    09:00 +29°C° 0.3 mm 5 mps 752 mmHg 69%
    10:00 +30°C° 0 mm 4 mps 752 mmHg 66%
    11:00 +33°C° 0 mm 4 mps 752 mmHg 63%
    12:00 +34°C° 0 mm 3 mps 752 mmHg 59%
    13:00 +35°C° 0 mm 3 mps 751 mmHg 56%
    14:00 +36°C° 0 mm 3 mps 751 mmHg 52%
    15:00 +37°C° 0 mm 3 mps 750 mmHg 49%
    16:00 +36°C° 0 mm 2 mps 749 mmHg 50%
    17:00 +36°C° 0 mm 2 mps 749 mmHg 51%
    18:00 +35°C° 0 mm 1 mps 749 mmHg 52%
    19:00 +34°C° 0.6 mm 2 mps 749 mmHg 57%
    20:00 +33°C° 0.6 mm 3 mps 750 mmHg 63%
    21:00 +30°C° 0.6 mm 4 mps 750 mmHg 68%
    22:00 +30°C° 0.2 mm 4 mps 750 mmHg 71%
    23:00 +29°C° 0.2 mm 4 mps 750 mmHg 74%

    Tomorrow, 21 April, Saturday

    Time Temperature Precipitation Wind Pressure Humidity
    00:00 +28°C° 0.2 mm 5 mps 751 mmHg 77%
    01:00 +28°C° 0.2 mm 4 mps 750 mmHg 78%
    02:00 +28°C° 0.2 mm 4 mps 750 mmHg 80%
    03:00 +28°C° 0.2 mm 4 mps 749 mmHg 82%
    04:00 +28°C° 0.1 mm 4 mps 750 mmHg 82%
    05:00 +28°C° 0.1 mm 4 mps 750 mmHg 83%
    06:00 +27°C° 0.1 mm 5 mps 750 mmHg 83%
    07:00 +28°C° 0.2 mm 5 mps 751 mmHg 81%
    08:00 +28°C° 0.2 mm 5 mps 751 mmHg 80%
    09:00 +28°C° 0.2 mm 5 mps 751 mmHg 78%
    10:00 +29°C° 0.2 mm 5 mps 751 mmHg 76%
    11:00 +30°C° 0.2 mm 5 mps 751 mmHg 73%
    12:00 +32°C° 0.2 mm 5 mps 751 mmHg 71%
    13:00 +33°C° 0 mm 5 mps 750 mmHg 66%
    14:00 +35°C° 0 mm 5 mps 749 mmHg 61%
    15:00 +37°C° 0 mm 5 mps 749 mmHg 56%
    16:00 +36°C° 0 mm 4 mps 748 mmHg 57%
    17:00 +36°C° 0 mm 3 mps 748 mmHg 59%
    18:00 +35°C° 0 mm 2 mps 748 mmHg 60%
    19:00 +34°C° 0.6 mm 3 mps 748 mmHg 65%
    20:00 +33°C° 0.6 mm 3 mps 749 mmHg 69%
    21:00 +32°C° 0.6 mm 4 mps 750 mmHg 74%
    22:00 +30°C° 0.6 mm 4 mps 750 mmHg 77%
    23:00 +29°C° 0.6 mm 4 mps 750 mmHg 80%

    Day after tomorrow, 22 April, Sunday

    Time Temperature Precipitation Wind Pressure Humidity
    00:00 +28°C° 0.6 mm 4 mps 750 mmHg 83%
    01:00 +28°C° 0.6 mm 4 mps 750 mmHg 85%
    02:00 +28°C° 0.6 mm 4 mps 750 mmHg 87%
    03:00 +27°C° 0.6 mm 4 mps 749 mmHg 89%
    04:00 +27°C° 0.3 mm 4 mps 750 mmHg 89%
    05:00 +27°C° 0.3 mm 4 mps 750 mmHg 89%
    06:00 +27°C° 0.3 mm 4 mps 750 mmHg 90%
    07:00 +28°C° 0.2 mm 4 mps 751 mmHg 87%
    08:00 +28°C° 0.2 mm 4 mps 752 mmHg 84%
    09:00 +29°C° 0.2 mm 5 mps 753 mmHg 82%
    10:00 +30°C° 0.1 mm 4 mps 753 mmHg 78%
    11:00 +32°C° 0.1 mm 4 mps 753 mmHg 75%
    12:00 +33°C° 0.1 mm 4 mps 752 mmHg 71%
    13:00 +34°C° 0 mm 4 mps 752 mmHg 66%
    14:00 +36°C° 0 mm 4 mps 751 mmHg 61%
    15:00 +37°C° 0 mm 3 mps 750 mmHg 56%
    16:00 +36°C° 1.5 mm 4 mps 749 mmHg 61%
    17:00 +34°C° 1.5 mm 4 mps 749 mmHg 65%
    18:00 +33°C° 1.5 mm 4 mps 749 mmHg 70%
    19:00 +32°C° 0.3 mm 4 mps 749 mmHg 72%
    20:00 +30°C° 0.3 mm 4 mps 750 mmHg 75%
    21:00 +30°C° 0.3 mm 4 mps 751 mmHg 77%
    22:00 +29°C° 0 mm 3 mps 751 mmHg 77%
    23:00 +28°C° 0 mm 3 mps 751 mmHg 76%

    23 April, Monday

    Time Temperature Precipitation Wind Pressure Humidity
    00:00 +28°C° 0 mm 3 mps 751 mmHg 75%
    01:00 +27°C° 0.2 mm 2 mps 751 mmHg 77%
    02:00 +27°C° 0.2 mm 2 mps 751 mmHg 80%
    03:00 +27°C° 0.2 mm 2 mps 751 mmHg 82%
    04:00 +27°C° 0.2 mm 2 mps 751 mmHg 83%
    05:00 +27°C° 0.2 mm 2 mps 751 mmHg 84%
    06:00 +27°C° 0.2 mm 3 mps 751 mmHg 85%
    07:00 +28°C° 0.4 mm 3 mps 752 mmHg 81%
    08:00 +29°C° 0.4 mm 3 mps 753 mmHg 78%
    09:00 +30°C° 0.4 mm 4 mps 753 mmHg 74%
    10:00 +32°C° 0 mm 4 mps 753 mmHg 73%
    11:00 +33°C° 0 mm 3 mps 753 mmHg 71%
    12:00 +33°C° 0 mm 3 mps 752 mmHg 70%
    13:00 +34°C° 0 mm 3 mps 751 mmHg 64%
    14:00 +36°C° 0 mm 4 mps 751 mmHg 58%
    15:00 +37°C° 0 mm 4 mps 750 mmHg 53%
    16:00 +37°C° 0 mm 3 mps 750 mmHg 54%
    17:00 +36°C° 0 mm 2 mps 749 mmHg 55%
    18:00 +35°C° 0 mm 1 mps 749 mmHg 56%
    19:00 +35°C° 0 mm 2 mps 750 mmHg 60%
    20:00 +34°C° 0 mm 2 mps 750 mmHg 64%
    21:00 +33°C° 0 mm 3 mps 751 mmHg 68%
    22:00 +31°C° 0.1 mm 3 mps 751 mmHg 70%
    23:00 +30°C° 0.1 mm 3 mps 751 mmHg 71%

    24 April, Tuesday

    Time Temperature Precipitation Wind Pressure Humidity
    00:00 +30°C° 0.1 mm 3 mps 750 mmHg 73%
    01:00 +29°C° 0.1 mm 4 mps 750 mmHg 76%
    02:00 +29°C° 0.1 mm 4 mps 750 mmHg 79%
    03:00 +28°C° 0.1 mm 4 mps 750 mmHg 82%
    04:00 +28°C° 0.3 mm 4 mps 750 mmHg 84%
    05:00 +28°C° 0.3 mm 4 mps 750 mmHg 85%
    06:00 +27°C° 0.3 mm 4 mps 751 mmHg 87%
    07:00 +28°C° 0 mm 4 mps 751 mmHg 82%
    08:00 +30°C° 0 mm 4 mps 752 mmHg 77%
    09:00 +32°C° 0 mm 5 mps 753 mmHg 72%
    10:00 +33°C° 0 mm 4 mps 752 mmHg 65%
    11:00 +35°C° 0 mm 4 mps 752 mmHg 58%
    12:00 +37°C° 0 mm 3 mps 752 mmHg 51%
    13:00 +38°C° 0 mm 3 mps 751 mmHg 44%
    14:00 +39°C° 0 mm 3 mps 750 mmHg 37%
    15:00 +40°C° 0 mm 3 mps 749 mmHg 30%
    16:00 +39°C° 0 mm 2 mps 749 mmHg 31%
    17:00 +39°C° 0 mm 2 mps 748 mmHg 31%
    18:00 +37°C° 0 mm 1 mps 748 mmHg 31%
    19:00 +36°C° 0 mm 2 mps 749 mmHg 37%
    20:00 +34°C° 0 mm 3 mps 749 mmHg 42%
    21:00 +33°C° 0 mm 3 mps 750 mmHg 48%
    22:00 +31°C° 0 mm 3 mps 750 mmHg 52%
    23:00 +30°C° 0 mm 3 mps 750 mmHg 56%

    25 April, Wednesday

    Time Temperature Precipitation Wind Pressure Humidity
    00:00 +30°C° 0 mm 3 mps 750 mmHg 60%
    01:00 +29°C° 0 mm 4 mps 749 mmHg 63%
    02:00 +29°C° 0 mm 4 mps 749 mmHg 67%
    03:00 +28°C° 0 mm 4 mps 749 mmHg 70%
    04:00 +28°C° 0 mm 4 mps 749 mmHg 73%
    05:00 +27°C° 0 mm 5 mps 750 mmHg 76%
    06:00 +27°C° 0 mm 5 mps 750 mmHg 78%
    07:00 +28°C° 0 mm 5 mps 751 mmHg 75%
    08:00 +29°C° 0 mm 5 mps 752 mmHg 72%
    09:00 +30°C° 0 mm 5 mps 752 mmHg 70%
    10:00 +32°C° 0 mm 5 mps 752 mmHg 65%
    11:00 +34°C° 0 mm 5 mps 752 mmHg 60%
    12:00 +35°C° 0 mm 4 mps 751 mmHg 56%
    13:00 +36°C° 0 mm 4 mps 750 mmHg 52%
    14:00 +37°C° 0 mm 3 mps 749 mmHg 49%
    15:00 +38°C° 0 mm 3 mps 749 mmHg 45%
    16:00 +38°C° 0 mm 2 mps 748 mmHg 47%
    17:00 +37°C° 0 mm 2 mps 748 mmHg 49%
    18:00 +36°C° 0 mm 1 mps 748 mmHg 51%
    19:00 +36°C° 0 mm 2 mps 749 mmHg 52%
    20:00 +34°C° 0 mm 3 mps 749 mmHg 54%
    21:00 +33°C° 0 mm 3 mps 750 mmHg 55%
    22:00 +32°C° 0.9 mm 4 mps 750 mmHg 59%
    23:00 +29°C° 0.9 mm 4 mps 751 mmHg 63%
    Show more